www.pogodaiklimat.ru
ПОГОДА в Смирне
Время
и дата
18:56 29.11
19:51 29.11
19:56 29.11
20:12 29.11
20:34 29.11
20:52 29.11
20:56 29.11
21:06 29.11
21:13 29.11
21:30 29.11
21:34 29.11
21:47 29.11
21:56 29.11
22:12 29.11
22:24 29.11
22:52 29.11
22:56 29.11
23:11 29.11
23:31 29.11
23:42 29.11
23:51 29.11
23:56 29.11
00:33 30.11
00:42 30.11
00:49 30.11
00:56 30.11
01:05 30.11
01:25 30.11
01:41 30.11
01:56 30.11
02:21 30.11
02:56 30.11
03:29 30.11
03:56 30.11
04:08 30.11
04:22 30.11
04:30 30.11
04:47 30.11
04:56 30.11
05:56 30.11
06:56 30.11
07:17 30.11
07:56 30.11
08:56 30.11
09:56 30.11
10:56 30.11
11:56 30.11
12:56 30.11
Ветер
(напр.,м/с)
Видим. Явления Облачность Т
(С)
Тd
(С)
f
(%)
Тe
(С)
Тes
(С)
Комфортность P
(гПа)
Po
(гПа)
Тmin
(С)
Tmax
(С)
R
(мм)
R24
(мм)
S
(см)
Ю 6
{8}
16 км слабый дождь 8/2 960 m
[Ac Ns]
+13.9 +12.8 93 +12 +12 1010.8 990.3
Ю 7
{9}
16 км гроза со слабым дождем 10/8 1950 m
[Ac Cb]
+15.0 +14.0 94 +13 +13 990.0
Ю 6
{9}
13 км гроза с дождем 10/8 1800 m
[Ac Cb]
+15.6 +13.9 90 +14 +14 1010.5 990.0
Ю 5 16 км слабый дождь 10/8 660 m
[Ac Ns]
+16.0 +14.0 88 +15 +15 989.6
Ю 5
{10}
16 км гроза, слабый дождь 8/5 660 m
[Ac Cb]
+16.0 +14.0 88 +15 +15 989.6
нст 3 16 км слабый дождь 10/8 450 m
[Ac Ns]
+16.0 +14.0 88
Ю 4 16 км слабый дождь 10/8 450 m
[Ac Ns]
+15.6 +14.4 93 1009.7 1.5
Ю 5 16 км слабый дождь 10/8 390 m
[Ac Ns]
+16.0 +14.0 88
ЮВ 5
{9}
11 км гроза, сильный дождь 10/10 390 m
[Cb]
+16.0 +14.0 88
Ю 7
{8}
16 км гроза, слабый дождь 10/10 390 m
[Cb]
+16.0 +15.0 94
Ю 7
{9}
16 км слабый дождь 10/10 390 m
[Ns]
+16.0 +15.0 94
Ю 4 16 км гроза со слабым дождем 10/10 750 m
[Cb]
+16.0 +14.0 88
Ю 5 16 км гроза с дождем 10/10 750 m
[Cb]
+15.6 +14.4 93 1009.1
Ю 3 16 км гроза, дождь 10/10 750 m
[Cb]
+16.0 +14.0 88 +16 +16 989.0
З 7
{8}
6 км гроза с сильным дождем, дымка 10/10 360 m
[Cb]
+16.0 +14.0 88
ЮЗ 3
{11}
10 км дождь, дымка 10/10 270 m
[Ns]
+16.0 +14.0 88 +16 +16 990.6
Ю 4 10 км сильный дождь, дымка 10/10 390 m
[Ns]
+15.6 +15.0 96 +15 +15 1010.3 990.0
Ю 4 16 км слабый дождь 10/10 510 m
[Ns]
+15.0 +14.0 94 +14 +14 989.6
ЮВ 7 16 км слабый дождь 10/10 390 m
[Ns]
+15.0 +14.0 94 +13 +13 989.0
ЮВ 5 16 км слабый дождь 10/8 450 m
[Ac Ns]
+15.0 +14.0 94 +13 +13 988.0
ЮВ 6 16 км слабый дождь 10/8 390 m
[Ac Ns]
+15.0 +14.0 94 +13 +13 988.0
ЮВ 6 16 км слабый дождь 10/8 390 m
[Ac Ns]
+15.0 +14.4 96 +13 +13 1007.7 987.7 +13.3 +16.1 15.7
СЗ 6
{8}
11 км сильный дождь 10/10 270 m
[Ns]
+15.0 +15.0 100 +13 +13 989.0
СЗ 5 8 км гроза, сильный дождь, дымка 10/10 180 m
[Cb]
+15.0 +15.0 100 +13 +13 989.6
Ю 4 4 км гроза, сильный дождь, дымка 10/10 240 m
[Cb]
+16.0 +15.0 94
Ю 4 2 км гроза с сильным дождем, дымка 10/10 240 m
[Cb]
+15.6 +15.0 96 1008.9
нст 2 5 км гроза с дождем, дымка 10/10 450 m
[Cb]
+16.0 +16.0 100 +16 +16 988.7
ЮВ 5 13 км гроза с дождем 10/10 390 m
[Cb]
+16.0 +16.0 100 +15 +15 988.0
Ю 2 16 км слабый дождь 8/8 930 m
[Ns]
+16.0 +16.0 100 +16 +16 989.0
Ю 2 16 км слабый дождь 8/8 810 m
[Ac Ns]
+15.6 +15.6 100 +15 +15 1009.1 988.7
Ю 2 16 км 8/8 690 m
[Ac]
+16.0 +16.0 100 +16 +16 989.0
Ю 2 16 км 8/2 1410 m
[Ac]
+15.6 +15.0 96 +15 +15 1009.5 989.3 18.5
ЮЗ 4 16 км слабый дождь 10/10 510 m
[Ns]
+16.0 +16.0 100 +15 +15 990.0
СЗ 11
{17}
16 км 8/8 420 м +15.0 +14.4 96 +12 +12 1011.1 990.6
СЗ 9 16 км 8/8 570 м +12.0 +12.0 100 +8 +8 991.6
СЗ 10
{13}
16 км 10/10 450 м +12.0 +12.0 100 +8 +8 992.3
СЗ 10
{13}
16 км 10/10 390 м +11.0 +11.0 100 +7 +7 992.6
СЗ 9 16 км 10/10 450 м +10.0 +10.0 100 +5 +5 993.6
СЗ 10
{13}
16 км 10/10 510 м +9.4 +8.9 97 +4 +4 1015.0 994.3
СЗ 10 16 км 10/10 510 м +7.2 +5.0 86 +2 +2 1018.9 997.9 +7.2 +16.1 19.3 41.9
СЗ 9 16 км 8/8 660 м +3.3 -0.6 76 -3 -3 1021.9 1001.3
СЗ 6 16 км 5/5 660 м +3.0 -1.0 75 -3 -3 1001.6
СЗ 7 16 км ясно +3.3 -1.1 73 -3 -3 1023.3 1002.6
СЗ 9
{11}
16 км ясно +4.4 -2.2 62 -2 -1 1024.6 1003.6
СЗ 6 16 км 2/2 1350 м +5.6 -1.7 59 +1 +2 1026.2 1005.3
С 6 16 км 2/2 1050 м +6.7 -2.8 51 +3 +4 1026.4 1005.3
С 5 16 км ясно +7.8 -3.3 45 +5 +8 1026.2 1005.3 +2.8 +7.8
СЗ 5 16 км ясно +8.3 -5.0 39 +5 +9 1026.8 1005.9
Местоположение метеостанции Smyrna Airport: широта 36.0089 долгота -86.5200 высота над уровнем моря 166 м.
В архиве по умолчанию представлена погода в Смирне за последние 1-2 суток. Обновление информации о фактической погоде в базе происходит ежечасно! Архивные данные за месяц целиком и за предыдущие месяцы Вы можете получить, выбрав интересующий диапазон дат из раскрывающегося списка и нажав кнопку "Ввод!".
Внимание! Архив погоды МЕТАР в базе сайта по станциям, не включенным в климатический монитор, хранится не более 60 дней. Нет смысла пытаться выбрать более раннюю дату.
*Определитесь, кто Вы:
Внимание! Время в таблицах - местное (без учета летнего времени). Для получения всемирного времени необходимо вычесть поправку, которая равна -6 ч.
Смотрите также архив погоды в соседних городах и на ближайших метеорологических станциях:
Партнеры нашего сайта:      
Пояснения к столбцам:
  • Ветер - указаны скорость ветра в м/с - средняя за 10 мин, порывы в срок и между сроками (в фигурных скобках) и направление, откуда дует ветер: С - северный,
  • СВ - северо-восточный, В - восточный, ЮВ - юго-восточный, Ю - южный, ЮЗ - юго-западный, З - западный, СЗ - северо-западный.
  • Видимость - горизонтальная дальность видимости в метрах или километрах. При видимости от 1 до 10 км при отсутствии осадков обычно наблюдается дымка, при ухудшении видимости до 1 км и менее - туман. В сухую погоду видимость может ухудшаться дымом, пылью или мглою.
  • Явления - указаны атмосферные явления, наблюдавшиеся в срок или в последний час перед сроком; фигурными скобками обозначены явления, наблюдавшиеся между сроками (за 1-3 часа до срока); квадратными скобками обозначены град или гололедные отложения с указанием их диаметра в мм.
  • Облачность - указаны через наклонную черту общая и нижняя облачность в баллах и высота нижней границы облаков в метрах; квадратными скобками обозначены формы облаков: Ci - перистые, Cs - перисто-слоистые, Cc - перисто-кучевые, Ac - высококучевые, As - высокослоистые, Sc - слоисто-кучевые, Ns - слоисто-дождевые, Cu - кучевые, Cb - кучево-дождевые. Подробнее классификацию облаков см. в Атласе облаков (PDF).
  • T - Температура воздуха - температура, измеренная на высоте 2 м над землей.
  • Td - Температура точки росы - температура, при понижении до которой содержащийся в воздухе водяной пар достигнет насыщения.
  • f - Относительная влажность воздуха - влажноcть воздуха, измеренная на высоте 2 м над землей.
  • Te - Эффективная температура - температура, которую ощущает одетый по сезону человек в тени. Характеристика душности погоды. При расчете учитывается влияние влажности воздуха и скорости ветра на теплоощущения человека.
  • Tes - Эффективная температура на солнце - температура, которую ощущает человек, с поправкой на солнечный нагрев. Характеристика знойности погоды. Зависит от высоты солнца над горизонтом, облачности и скорости ветра. Ночью, в пасмурную погоду, а также при ветре 12 м/с и более поправка равна нулю.
  • P - Атмосферное давление - приведенное к уровню моря атмосферное давление.
  • Po - Атмосферное давление - измеренное на уровне метеостанции атмосферное давление.
  • Tmin - Минимальная температура - минимум температуры воздуха на высоте 2 м над землей.
  • Tmax - Максимальная температура - максимум температуры воздуха на высоте 2 м над землей.
  • R - Количество осадков - Количество выпавших осадков за период времени, мм. При наведении курсора мыши на число - период времени, за который выпало указанное количество осадков.
  • R24 - Количество осадков - Количество выпавших осадков за 24 часа, мм.
  • S - Снежный покров - Высота снежного покрова, см. При наведении курсора мыши на число - состояние снежного покрова и степень покрытия местности в баллах.